Radiation Dose measured at Intake/Vertical shaft monitor
Date,Time,Intake(cps),Vertical shaft(cps),Rain
2024/02/29,00:00,4.6,4.5,No
2024/02/29,00:10,4.6,4.5,No
2024/02/29,00:20,4.6,4.7,No
2024/02/29,00:30,4.4,4.6,No
2024/02/29,00:40,4.4,4.7,No
2024/02/29,00:50,4.5,4.7,No
2024/02/29,01:00,4.4,4.7,No
2024/02/29,01:10,4.5,4.5,No
2024/02/29,01:20,4.5,4.7,No
2024/02/29,01:30,4.5,4.7,No
2024/02/29,01:40,4.6,4.7,No
2024/02/29,01:50,4.5,4.4,No
2024/02/29,02:00,4.5,4.5,No
2024/02/29,02:10,4.6,4.6,No
2024/02/29,02:20,4.5,4.6,No
2024/02/29,02:30,4.5,4.6,No
2024/02/29,02:40,4.5,4.7,No
2024/02/29,02:50,4.5,4.7,No
2024/02/29,03:00,4.4,4.7,No
2024/02/29,03:10,4.6,4.7,No
2024/02/29,03:20,4.4,4.5,No
2024/02/29,03:30,4.6,4.6,No
2024/02/29,03:40,4.5,4.7,No
2024/02/29,03:50,4.6,4.6,No
2024/02/29,04:00,4.4,4.6,No
2024/02/29,04:10,4.4,4.6,No
2024/02/29,04:20,4.5,4.5,No
2024/02/29,04:30,4.5,4.5,No
2024/02/29,04:40,4.5,4.8,No
2024/02/29,04:50,4.4,4.6,No
2024/02/29,05:00,4.5,4.6,No
2024/02/29,05:10,4.4,4.5,No
2024/02/29,05:20,4.5,4.6,No
2024/02/29,05:30,4.5,4.6,No
2024/02/29,05:40,4.2,4.6,No
2024/02/29,05:50,4.4,4.6,No
2024/02/29,06:00,4.5,4.6,No
2024/02/29,06:10,4.4,4.6,No
2024/02/29,06:20,4.2,4.6,No
2024/02/29,06:30,4.5,4.5,No
2024/02/29,06:40,4.4,4.6,No
2024/02/29,06:50,4.5,4.6,No
2024/02/29,07:00,4.4,4.7,No
2024/02/29,07:10,4.4,4.7,No
2024/02/29,07:20,4.4,4.4,No
2024/02/29,07:30,4.3,4.5,No
2024/02/29,07:40,4.4,4.5,No
2024/02/29,07:50,4.4,4.5,No
2024/02/29,08:00,4.5,4.6,No
2024/02/29,08:10,4.3,4.7,No
2024/02/29,08:20,4.3,4.7,No
2024/02/29,08:30,4.4,4.7,No
2024/02/29,08:40,4.4,4.5,No
2024/02/29,08:50,4.4,4.7,No
2024/02/29,09:00,4.4,4.7,No
2024/02/29,09:10,4.5,4.6,No
2024/02/29,09:20,4.3,4.6,No
2024/02/29,09:30,4.4,4.5,No
2024/02/29,09:40,4.4,4.5,No
2024/02/29,09:50,4.4,4.6,No
2024/02/29,10:00,4.4,4.6,No
2024/02/29,10:10,4.5,4.7,No
2024/02/29,10:20,4.5,4.6,No
2024/02/29,10:30,4.4,4.5,No
2024/02/29,10:40,4.5,4.6,No
2024/02/29,10:50,4.6,4.7,No
2024/02/29,11:00,4.4,4.7,No
2024/02/29,11:10,4.5,4.6,No
2024/02/29,11:20,4.6,4.7,No
2024/02/29,11:30,4.5,4.5,No
2024/02/29,11:40,4.4,4.5,No
2024/02/29,11:50,4.6,4.6,No
2024/02/29,12:00,4.6,4.6,No
2024/02/29,12:10,4.6,4.6,No
2024/02/29,12:20,4.6,4.7,No
2024/02/29,12:30,4.7,4.6,No
2024/02/29,12:40,4.6,4.6,No
2024/02/29,12:50,4.7,4.6,No
2024/02/29,13:00,4.4,4.6,No
2024/02/29,13:10,4.5,4.6,No
2024/02/29,13:20,4.5,4.6,No
2024/02/29,13:30,4.6,4.6,No
2024/02/29,13:40,4.6,4.7,No
2024/02/29,13:50,4.5,4.5,No
2024/02/29,14:00,4.6,4.6,No
2024/02/29,14:10,4.6,4.6,No
2024/02/29,14:20,4.6,4.5,No
2024/02/29,14:30,4.4,4.6,No
2024/02/29,14:40,4.4,4.5,No
2024/02/29,14:50,4.6,4.6,No
2024/02/29,15:00,4.6,4.5,No
2024/02/29,15:10,4.6,4.6,No
2024/02/29,15:20,4.5,4.4,No
2024/02/29,15:30,4.5,4.8,No
2024/02/29,15:40,4.5,4.6,No
2024/02/29,15:50,4.5,4.6,No
2024/02/29,16:00,4.5,4.6,No
2024/02/29,16:10,4.4,4.6,No
2024/02/29,16:20,4.5,4.5,No
2024/02/29,16:30,4.5,4.5,No
2024/02/29,16:40,4.5,4.7,No
2024/02/29,16:50,4.5,4.4,No
2024/02/29,17:00,4.6,4.5,No
2024/02/29,17:10,4.5,4.4,No
2024/02/29,17:20,4.4,4.6,No
2024/02/29,17:30,4.4,4.7,No
2024/02/29,17:40,4.5,4.5,No
2024/02/29,17:50,4.4,4.5,No
2024/02/29,18:00,4.5,4.6,No
2024/02/29,18:10,4.5,4.7,No
2024/02/29,18:20,4.5,4.5,No
2024/02/29,18:30,4.4,4.5,No
2024/02/29,18:40,4.4,4.5,No
2024/02/29,18:50,4.5,4.5,No
2024/02/29,19:00,4.4,4.5,No
2024/02/29,19:10,4.5,4.6,No
2024/02/29,19:20,4.5,4.5,No
2024/02/29,19:30,4.5,4.5,No
2024/02/29,19:40,4.4,4.5,Yes
2024/02/29,19:50,4.5,4.7,Yes
2024/02/29,20:00,4.4,4.7,Yes
2024/02/29,20:10,4.5,4.6,Yes
2024/02/29,20:20,4.7,4.6,Yes
2024/02/29,20:30,4.7,4.6,Yes
2024/02/29,20:40,4.9,4.6,Yes
2024/02/29,20:50,4.8,4.6,Yes
2024/02/29,21:00,4.8,4.7,Yes
2024/02/29,21:10,4.9,4.6,Yes
2024/02/29,21:20,4.9,4.8,Yes
2024/02/29,21:30,4.9,4.7,Yes
2024/02/29,21:40,5.0,4.8,Yes
2024/02/29,21:50,5.1,4.9,Yes
2024/02/29,22:00,5.1,4.9,Yes
2024/02/29,22:10,5.1,5.0,Yes
2024/02/29,22:20,5.0,5.0,Yes
2024/02/29,22:30,5.1,5.0,Yes
2024/02/29,22:40,5.0,4.9,Yes
2024/02/29,22:50,5.3,5.0,Yes
2024/02/29,23:00,5.0,4.9,Yes
2024/02/29,23:10,5.2,4.9,Yes
2024/02/29,23:20,5.1,4.9,Yes
2024/02/29,23:30,5.0,4.9,Yes
2024/02/29,23:40,5.1,4.9,Yes
2024/02/29,23:50,5.1,4.8,Yes
